パンスターズ彗星

C/2013 Y2 ( PanSTARRS )

English version
Home page
Updated on December 24, 2014

---------------------------------------------------------------------

・ プロフィール

発見日 2013年12月30日
発見光度 18.4等
発見者 Pan-STARRS 1 telescope (Haleakala)

・ 写真集

・ 軌道要素

Epoch 2014 July 2.0 TT = JDT 2456840.5
T 2014 June 13.65596 TT                                 MPC
q   1.9190528            (2000.0)            P               Q
z  +0.0045927      Peri.  308.84804     -0.88746847     +0.13983034
 +/-0.0000018      Node   243.39934     -0.08372551     -0.98592227
e   0.9911864      Incl.   29.41490     -0.45319945     -0.09167745
From 432 observations 2013 Dec. 30-2014 Sept. 10, mean residual 0".4.

・ 星図

・ 光度変化

        m1 = 7.0 + 5 logΔ + 20.0 log r

---------------------------------------------------------------------

軌道要素はM.P.E.C. 2014-U124に掲載されたものです。
星図はステラナビゲータ Ver.8 (アストロアーツ) で作成したものです。
光度グラフはComet for Windowsで作成したものです。

---------------------------------------------------------------------

Copyright(C) Seiichi Yoshida (comet@aerith.net). All rights reserved.